This is the latest recevied weather packets stored in our database for station/object YO8SDE-8. If no packets are shown the sender has not sent any weather packets the latest 10 day(s).
| Time | Temp. | Humidity | Pressure | Rain* | Wind** | Luminosity | Snow |
|---|---|---|---|---|---|---|---|
| 1777539967 | 15° C | 31% | 1015.6 hPa | 0 mm | - | - | - |
| 1777539667 | 15° C | 32% | 1015.6 hPa | 0 mm | - | - | - |
| 1777539367 | 14.44° C | 31% | 1015.5 hPa | 0 mm | - | - | - |
| 1777539067 | 16.11° C | 31% | 1015.6 hPa | 0 mm | - | - | - |
| 1777538767 | 13.89° C | 32% | 1015.6 hPa | 0 mm | - | - | - |
| 1777538467 | 15° C | 31% | 1015.6 hPa | 0 mm | - | - | - |
| 1777538167 | 15.56° C | 30% | 1015.6 hPa | 0 mm | - | - | - |
| 1777537867 | 17.78° C | 29% | 1015.5 hPa | 0 mm | - | - | - |
| 1777537567 | 17.78° C | 30% | 1015.5 hPa | 0 mm | - | - | - |
| 1777537267 | 16.67° C | 31% | 1015.7 hPa | 0 mm | - | - | - |
| 1777536967 | 16.67° C | 32% | 1015.7 hPa | 0 mm | - | - | - |
| 1777536667 | 16.11° C | 33% | 1015.8 hPa | 0 mm | - | - | - |
| 1777536367 | 15° C | 34% | 1015.8 hPa | 0 mm | - | - | - |
| 1777536067 | 13.33° C | 33% | 1015.7 hPa | 0 mm | - | - | - |
| 1777535767 | 15° C | 34% | 1015.7 hPa | 0 mm | - | - | - |
| 1777535467 | 14.44° C | 34% | 1015.7 hPa | 0 mm | - | - | - |
| 1777535167 | 14.44° C | 36% | 1015.8 hPa | 0 mm | - | - | - |
| 1777534867 | 13.89° C | 38% | 1015.7 hPa | 0 mm | - | - | - |
| 1777534567 | 13.89° C | 38% | 1015.8 hPa | 0 mm | - | - | - |
| 1777534267 | 13.33° C | 40% | 1015.7 hPa | 0 mm | - | - | - |
| 1777533967 | 13.33° C | 39% | 1015.8 hPa | 0 mm | - | - | - |
| 1777533667 | 13.33° C | 41% | 1015.8 hPa | 0 mm | - | - | - |
| 1777533367 | 12.78° C | 43% | 1015.8 hPa | 0 mm | - | - | - |
| 1777533067 | 12.22° C | 44% | 1015.8 hPa | 0 mm | - | - | - |
| 1777532767 | 11.67° C | 44% | 1015.7 hPa | 0 mm | - | - | - |
* Rain latest hour (hover to see other rain measurements)
** Current wind speed in m/s (hover to see current wind gust speed)